ATLAS CENTAUR R/B

Last updated on Sat Aug 15 2026 00:02:07 GMT+0000 (Coordinated Universal Time)

1 06155U 72065B 26226.37382074 .00000418 00000+0 59676-4 0 9998 2 06155 35.0016 101.3964 0034311 258.0907 101.5945 14.78003337864606
UTC large
Height (km)
Speed (km/s)
/
Latitude / Longitude
Inclination (degrees)
Orbital Period (minutes)
Azimuth
Elevation
Range (km)
Doppler Factor

Next 0 passes for location: London (51.5072 / 0.1276)

No passes found over London.
ATLAS CENTAUR R/B